Probability
2 1 1 0 0 0 0 0 0 0 0 0 0 0 0 0 0 0 0 0 0 0 0 0 0 0 0 0 0 0 0 0 0 0 0 0 0 0 0 0 0 0 0
4 3 1 0 0 0 0 0 0 0 0 0 0 0 0 0 0 0 0 0 0 0 0 0 0 0 0 0 0 0 0 0 0 0 0 0 0 0 0 0 0 0 0
6 3 0 0 0 0 0 0 0 0 0 0 0 0 0 0 0 0 0 0 0 0 0 0 0 0 0 0 0 0 0 0 0 0 0 0 0 0 0 0 0 0 0
5 2 0 0 0 0 0 0 0 0 0 0 0 0 0 0 0 0 0 0 0 0 0 0 0 0 0 0 0 0 0 0 0 0 0 0 0 0 0 0 0 0 0
3 1 0 1 1 0 0 0 0 0 0 0 0 0 0 0 0 0 0 0 0 0 0 0 0 0 0 0 0 0 0 0 0 0 0 0 0 0 0 0 0 0 0
2 1 1 2 2 1 0 0 0 0 0 0 0 0 0 0 0 0 0 0 0 0 0 0 0 0 0 0 0 0 0 0 0 0 0 0 0 0 0 0 0 0 0
1 1 1 2 2 1 0 0 0 0 0 0 0 0 0 0 0 0 0 0 0 0 0 0 0 0 0 0 0 0 0 0 0 0 0 0 0 0 0 0 0 0 0
2 1 2 2 1 0 0 0 0 0 0 0 0 0 0 0 0 0 0 0 0 0 0 0 0 0 0 0 0 0 0 0 0 0 0 0 0 0 0 0 0 0 0
3 2 2 1 0 0 0 0 0 0 0 0 0 0 0 0 0 0 0 0 0 0 0 0 0 0 0 0 0 0 0 0 0 0 0 0 0 0 0 0 0 0 0
3 2 1 2 1 0 0 0 0 0 0 0 0 0 0 0 0 0 0 0 0 0 0 0 0 0 0 0 0 0 0 0 0 0 0 0 0 0 0 0 0 0 0
2 1 1 2 2 1 0 0 0 0 0 0 0 0 0 0 0 0 0 0 0 0 0 0 0 0 0 0 0 0 0 0 0 0 0 0 0 0 0 0 0 0 0
1 0 1 2 3 1 0 0 0 0 0 0 0 0 0 0 0 0 0 0 0 0 0 0 0 0 0 0 0 0 0 0 0 0 0 0 0 0 0 0 0 0 0
0 0 1 2 2 2 1 0 0 0 0 0 0 0 0 0 0 0 0 0 0 0 0 0 0 0 0 0 0 0 0 0 0 0 0 0 0 0 0 0 0 0 0
0 0 0 1 1 2 2 1 0 0 0 0 0 0 0 0 0 0 0 0 0 0 0 0 0 0 0 0 0 0 0 0 0 0 0 0 0 0 0 0 0 0 0
0 0 0 0 1 1 2 2 1 0 0 0 0 0 0 0 0 0 0 0 0 0 0 0 0 0 0 0 0 0 0 0 0 0 0 0 0 0 0 0 0 0 0
0 0 0 1 1 1 1 2 1 0 0 0 1 1 1 0 0 0 0 0 0 0 0 0 0 0 0 0 0 0 0 0 0 0 0 0 0 0 0 0 0 0 0
0 0 0 1 1 1 1 2 2 1 0 0 1 2 2 1 0 0 0 0 0 0 0 0 0 0 0 0 0 0 0 0 0 0 0 0 0 0 0 0 0 0 0
0 0 0 0 1 2 2 2 2 2 1 0 0 1 2 2 1 0 0 0 0 0 0 0 0 0 0 0 0 0 0 0 0 0 0 0 0 0 0 0 0 0 0
0 0 0 0 0 1 2 1 1 2 1 0 0 0 1 2 1 0 0 0 0 0 0 0 0 0 0 0 0 0 0 0 0 0 0 0 0 0 0 0 0 0 0
1 0 0 0 0 1 2 2 1 1 1 1 0 0 1 2 2 1 0 0 0 0 0 0 0 0 0 0 0 0 0 0 0 0 0 0 0 0 0 0 0 0 0
2 1 0 0 0 1 2 3 2 1 1 2 1 0 0 1 1 1 0 0 0 0 0 0 0 0 0 0 0 0 0 0 0 0 0 0 0 0 0 0 0 0 0
3 2 1 0 0 0 1 2 2 1 1 2 2 1 0 0 0 0 0 0 0 0 0 0 0 0 0 0 0 0 0 0 0 0 0 0 0 0 0 0 0 0 0
4 3 2 1 0 0 0 1 2 1 0 1 2 1 0 0 0 0 0 0 0 0 0 0 0 0 0 0 0 0 0 0 0 0 0 0 0 0 0 0 0 0 0
4 4 3 1 0 0 0 1 2 1 0 1 1 1 0 0 0 0 0 0 0 0 0 0 0 0 0 0 0 0 0 0 0 0 0 0 0 0 0 0 0 0 0
4 4 4 3 1 1 1 1 1 1 1 0 1 1 1 0 0 0 0 0 0 0 0 0 0 0 0 0 0 0 0 0 0 0 0 0 0 0 0 0 0 0 0
3 4 4 3 2 1 1 0 0 1 1 1 1 2 1 0 0 0 0 0 0 0 0 0 0 0 0 0 0 0 0 0 0 0 0 0 0 0 0 0 0 0 0
Wind_Speed
10 13 14 13 13 12 12 12 12 11 11 11 11 11 11 11 12 12 12 12 12 13 14 14 14 14 14 14 14 14 13 13 13 13 13 13 13 13 14 13 12 9 13
13 14 13 12 13 12 11 11 11 11 11 11 11 11 11 11 11 12 11 12 12 12 13 13 13 13 13 12 12 12 11 10 9 8 9 9 11 12 13 13 12 8 11
14 14 12 12 12 12 12 11 11 11 11 11 11 10 11 11 11 11 11 11 12 12 12 12 12 12 11 11 11 10 9 7 5 4 4 4 7 11 11 11 11 10 10
13 13 12 12 12 12 12 11 11 10 10 10 11 11 11 11 11 11 11 11 10 11 11 11 11 11 10 10 10 9 7 6 6 5 3 4 5 10 10 10 10 10 10
12 12 12 12 12 12 11 11 10 10 10 10 10 10 10 10 11 11 10 10 10 10 10 10 10 10 9 9 8 7 6 6 7 5 3 5 5 8 8 8 8 8 8
11 11 13 12 12 11 11 10 10 10 9 9 9 10 10 10 10 10 9 9 9 9 9 9 9 8 8 7 7 6 6 7 6 3 4 5 5 7 7 7 7 7 7
9 10 12 11 11 11 10 10 9 9 9 9 9 9 9 9 9 9 8 8 8 8 8 8 7 7 6 6 5 5 6 8 3 3 4 4 4 6 6 5 5 6 6
9 10 10 10 10 10 9 9 9 9 8 8 9 9 8 8 8 8 7 7 7 7 7 6 6 6 5 5 4 4 5 6 5 3 3 3 4 4 4 5 5 4 5
8 8 8 8 8 9 9 8 8 8 8 8 8 8 7 7 7 6 6 6 6 6 5 5 4 4 4 3 3 3 4 6 4 2 2 2 3 3 3 4 4 5 5
6 7 7 7 6 6 6 7 7 7 7 7 7 7 7 7 6 6 5 5 5 4 4 3 3 3 2 1 1 2 4 5 3 1 1 2 2 2 3 4 4 5 5
4 4 5 5 5 5 6 7 6 6 6 6 5 6 6 4 4 4 5 5 5 4 3 3 2 1 1 1 2 3 4 2 2 1 1 3 2 2 3 4 4 5 5
3 3 4 4 4 5 5 5 3 4 4 4 3 4 3 3 3 4 6 6 5 3 2 2 2 2 2 2 3 4 2 2 1 1 1 2 0 2 4 4 5 5 6
4 3 3 3 4 4 3 4 3 2 3 3 4 4 3 2 2 3 2 3 3 3 2 3 3 2 3 2 1 2 2 1 1 0 1 1 1 3 5 5 6 6 6
3 3 2 3 3 3 3 3 3 3 2 2 3 4 3 2 2 2 2 2 2 2 2 2 2 3 2 2 2 2 2 1 1 1 1 1 2 4 6 7 7 7 8
4 4 3 3 3 3 3 3 3 3 3 3 3 3 3 2 2 2 2 2 2 2 2 2 2 2 2 2 2 2 2 2 2 2 1 3 3 5 6 7 8 8 9
3 4 3 3 3 3 3 3 3 3 3 3 3 3 3 2 2 2 2 2 2 2 2 2 2 2 2 2 2 3 3 3 3 2 2 2 4 5 6 7 8 9 9
3 3 4 4 4 4 4 3 3 2 2 2 2 3 3 3 3 2 2 2 2 2 2 2 2 1 1 1 2 3 2 3 3 3 3 2 3 4 6 7 8 8 8
1 2 3 3 3 3 3 3 2 3 3 2 2 2 3 3 3 3 2 2 2 2 2 2 1 1 2 2 2 2 2 3 4 3 3 3 2 2 4 6 6 7 8
1 1 2 2 3 3 3 3 3 3 3 2 2 2 2 3 3 3 3 3 3 2 2 2 2 2 2 2 3 3 3 3 3 3 4 3 3 3 2 3 4 5 6
1 1 1 1 2 3 3 2 2 3 3 2 2 3 3 3 3 3 2 3 3 2 2 2 2 2 2 2 3 3 3 4 3 3 4 3 3 3 2 2 2 2 4
3 2 1 1 1 2 2 3 3 3 3 3 3 3 4 3 4 3 2 3 3 3 3 3 3 3 3 1 1 3 4 5 5 4 3 2 2 2 2 2 2 2 1
3 3 3 2 1 1 2 3 3 3 3 3 3 4 4 4 4 3 4 3 3 3 4 4 3 2 2 2 2 1 3 3 3 3 2 2 2 1 2 2 2 1 1
3 2 2 3 2 1 1 1 1 1 1 2 3 3 4 5 5 4 5 4 4 4 4 4 4 4 3 3 3 2 2 3 3 2 2 2 2 2 2 1 1 1 1
2 3 3 2 3 1 0 1 2 3 3 4 3 3 4 5 5 5 5 5 5 4 4 4 4 4 4 3 3 3 3 2 1 2 2 2 2 2 2 2 2 2 2
3 3 3 3 3 2 1 1 2 3 3 2 3 3 4 4 5 5 5 5 5 5 5 5 4 5 5 5 4 3 4 3 3 3 4 3 2 2 2 2 2 2 2
4 4 3 3 3 3 2 1 2 3 3 3 3 3 3 3 3 5 5 5 5 5 5 5 5 5 5 5 4 3 3 3 3 4 5 4 4 3 2 2 2 2 2
Wind_Direction
122 130 138 138 136 134 131 126 122 119 117 114 110 107 104 100 97 93 91 90 87 84 82 78 76 75 74 73 71 71 71 72 72 73 70 67 66 64 59 57 58 55 56
124 130 136 136 137 136 133 129 126 124 121 117 113 108 104 104 101 96 92 90 89 85 83 81 78 76 75 74 72 71 71 72 73 74 74 68 68 67 62 57 57 57 55
124 131 136 133 134 135 132 129 125 125 124 120 116 110 106 107 105 101 96 92 90 88 86 84 82 79 77 75 73 70 66 59 44 33 58 86 74 69 64 58 55 54 54
126 134 139 134 134 134 132 130 126 125 125 122 118 112 109 107 105 104 99 95 93 92 90 89 86 83 80 76 73 67 55 33 8 359 47 74 71 69 63 57 52 51 50
127 133 131 135 134 133 132 131 128 126 125 124 121 116 112 109 108 106 103 99 96 95 92 89 86 83 80 77 70 60 38 6 352 356 59 73 72 68 62 56 54 49 46
125 127 132 137 136 135 134 133 131 130 129 128 125 120 116 112 112 110 107 103 99 96 93 89 85 81 77 72 64 50 22 358 347 14 52 63 68 62 57 55 52 48 44
122 124 137 136 137 137 137 137 136 134 130 128 126 121 119 117 115 114 111 109 105 101 96 92 86 81 77 72 60 37 9 349 348 32 52 64 65 56 48 47 43 39 35
115 122 135 134 136 139 140 140 139 138 135 133 129 125 122 121 118 117 113 111 110 107 102 96 91 84 80 73 57 28 359 341 343 21 63 74 70 57 39 35 28 22 20
112 122 134 143 142 139 141 143 143 141 140 137 132 127 124 121 119 118 117 117 117 114 109 104 100 91 83 70 49 12 340 328 322 341 50 74 66 49 30 19 10 7 3
110 123 138 151 151 152 147 146 145 143 142 141 134 131 132 131 129 133 133 130 127 125 123 116 111 108 94 77 4 315 308 311 298 320 53 87 75 41 4 355 349 346 343
112 127 138 148 152 155 156 152 147 142 143 139 137 143 146 157 156 153 150 137 131 131 141 142 148 157 170 217 241 263 285 278 302 348 50 87 75 5 339 334 333 332 330
138 143 143 148 148 154 156 143 152 158 155 160 152 155 180 184 160 146 138 140 140 144 157 183 205 216 227 227 233 244 260 266 290 306 92 113 100 317 315 316 317 318 316
162 152 151 151 146 147 143 148 155 159 161 178 167 176 194 173 136 129 137 144 157 171 190 201 210 230 231 224 217 226 253 279 287 304 127 153 246 290 300 303 302 304 306
164 164 171 150 145 148 148 161 157 156 164 177 175 186 181 160 158 156 156 168 174 190 197 196 212 227 233 251 255 263 278 275 267 265 190 212 258 283 291 293 295 297 296
174 174 183 163 153 156 157 167 164 167 169 175 172 185 175 161 171 168 169 169 183 195 194 209 217 220 225 240 247 251 266 270 263 252 219 226 245 267 279 284 287 291 293
182 175 177 174 169 165 168 174 169 167 165 166 162 176 181 172 174 174 174 175 196 196 196 206 219 221 228 227 246 252 255 261 259 258 238 232 238 248 265 276 282 286 290
185 171 174 180 181 179 182 182 176 169 161 164 166 179 185 181 180 176 183 190 206 202 202 214 234 231 237 244 250 255 256 258 259 260 251 231 230 242 250 263 276 283 287
168 162 163 167 180 187 188 188 181 177 173 173 171 179 189 198 187 181 188 195 205 197 196 209 221 228 246 253 259 257 252 249 251 251 252 242 228 231 242 250 264 273 281
116 136 151 160 176 183 190 189 181 182 182 180 174 178 194 206 200 192 195 199 195 192 196 209 217 217 238 252 257 256 256 252 249 248 249 248 241 231 226 242 254 264 273
51 70 89 149 185 183 180 181 182 190 194 188 187 188 190 201 203 202 203 208 200 195 200 205 220 228 229 243 265 269 261 255 247 246 248 251 244 237 230 225 229 258 270
28 26 39 53 216 190 181 182 189 202 202 198 197 201 203 205 204 202 208 211 208 206 208 207 210 223 230 231 263 285 270 251 237 242 239 241 245 240 238 234 224 230 259
20 12 357 347 310 236 210 197 187 196 203 204 198 204 209 212 210 211 213 213 211 215 217 214 207 209 218 194 199 258 293 297 269 244 231 235 246 249 246 246 239 244 238
11 352 340 329 320 298 278 188 166 179 190 211 216 212 212 211 212 211 215 217 219 218 225 223 211 205 217 219 200 192 219 251 295 263 236 231 236 254 255 249 237 250 243
3 351 347 343 340 341 266 192 188 203 218 224 222 223 227 218 216 214 216 216 218 220 225 226 219 217 211 223 223 225 232 242 256 288 280 254 243 244 247 249 237 238 233
9 356 347 347 353 348 329 247 219 226 232 233 228 228 230 228 220 216 216 218 220 222 225 225 222 221 216 218 215 218 238 253 244 243 268 273 268 249 241 236 238 237 230
7 3 356 352 350 348 342 305 252 245 243 239 241 231 234 239 232 224 222 221 223 224 227 227 225 224 223 223 221 214 207 217 230 233 252 265 267 261 243 234 240 242 238